Location: Charlottesville
(38.0290°N, 78.4770°W)
Time: 17:49:14
(UTC-04:00)

Tiangong 1 - Pass Details

Date: 14 October 2017
Orbit: 293 x 320 km, 42.8° (Epoch: 20 October)

Event Time Altitude Azimuth Distance (km) Brightness Sun altitude
Rises 20:04:16 0° 291° (WNW) 2,040 6.1 -17.9°
Reaches altitude 10° 20:06:16 10° 290° (WNW) 1,204 4.7 -18.3°
Enters shadow 20:08:38 62° 265° (W) 352 1.1 -18.8°
